| time (UTC) | temp C | wind direction | speed KPH | gust KPH | rain 1hr cm | rain 24hr cm | rain mn cm | humidity % | barometer mb |
| 20260506093332 | 25 | 250 | 17.7 | 0.0 | 0.00 | 0.00 | 0.00 | 34 | 1013.0 |
| 20260506091832 | 23 | 220 | 9.7 | 0.0 | 0.00 | 0.00 | 0.00 | 36 | 1013.0 |
| 20260506090332 | 23 | 220 | 9.7 | 0.0 | 0.00 | 0.00 | 0.00 | 36 | 1013.0 |
| 20260506084832 | 22 | 210 | 11.3 | 0.0 | 0.00 | 0.00 | 0.00 | 38 | 1013.0 |
| 20260506083332 | 22 | 210 | 11.3 | 0.0 | 0.00 | 0.00 | 0.00 | 38 | 1013.0 |
| 20260506081829 | 22 | 200 | 12.9 | 0.0 | 0.00 | 0.00 | 0.00 | 41 | 1013.0 |
| 20260506080332 | 22 | 200 | 12.9 | 0.0 | 0.00 | 0.00 | 0.00 | 41 | 1013.0 |
| 20260506073332 | 22 | 260 | 12.9 | 0.0 | 0.00 | 0.00 | 0.00 | 44 | 1013.0 |
| 20260506071832 | 21 | 230 | 9.7 | 0.0 | 0.00 | 0.00 | 0.00 | 43 | 1013.0 |
| 20260506070332 | 21 | 230 | 9.7 | 0.0 | 0.00 | 0.00 | 0.00 | 43 | 1013.0 |
| 20260506061832 | 18 | 210 | 11.3 | 0.0 | 0.00 | 0.00 | 0.00 | 46 | 1013.0 |
| 20260506060334 | 18 | 210 | 11.3 | 0.0 | 0.00 | 0.00 | 0.00 | 46 | 1013.0 |
| 20260506050346 | 16 | 210 | 8.0 | 0.0 | 0.00 | 0.00 | 0.00 | 55 | 1013.0 |
| 20260506044848 | 15 | 150 | 1.6 | 0.0 | 0.00 | 0.00 | 0.00 | 59 | 1012.0 |
| 20260506043336 | 15 | 150 | 1.6 | 0.0 | 0.00 | 0.00 | 0.00 | 59 | 1012.0 |
| 20260506041833 | 12 | 170 | 8.0 | 0.0 | 0.00 | 0.00 | 0.00 | 63 | 1012.0 |
| 20260506040332 | 12 | 170 | 8.0 | 0.0 | 0.00 | 0.00 | 0.00 | 63 | 1012.0 |
| 20260506034833 | 10 | 190 | 14.5 | 0.0 | 0.00 | 0.00 | 0.00 | 67 | 1012.0 |
| 20260506033332 | 10 | 190 | 14.5 | 0.0 | 0.00 | 0.00 | 0.00 | 67 | 1012.0 |
| 20260506031832 | 10 | 190 | 12.9 | 0.0 | 0.00 | 0.00 | 0.00 | 67 | 1012.0 |
| 20260506030331 | 10 | 190 | 12.9 | 0.0 | 0.00 | 0.00 | 0.00 | 67 | 1012.0 |
| 20260506024832 | 10 | 190 | 12.9 | 0.0 | 0.00 | 0.00 | 0.00 | 67 | 1012.0 |
| 20260506023332 | 10 | 190 | 12.9 | 0.0 | 0.00 | 0.00 | 0.00 | 67 | 1012.0 |
| 20260506021832 | 10 | 220 | 11.3 | 0.0 | 0.00 | 0.00 | 0.00 | 67 | 1012.0 |
| 20260506020332 | 10 | 220 | 11.3 | 0.0 | 0.00 | 0.00 | 0.00 | 67 | 1012.0 |
| 20260506014832 | 10 | 210 | 4.8 | 0.0 | 0.00 | 0.00 | 0.00 | 67 | 1012.0 |
| 20260506013332 | 10 | 210 | 4.8 | 0.0 | 0.00 | 0.00 | 0.00 | 67 | 1012.0 |
| 20260506011833 | 8 | 280 | 12.9 | 0.0 | 0.00 | 0.00 | 0.00 | 71 | 1012.0 |
| 20260506010332 | 8 | 280 | 12.9 | 0.0 | 0.00 | 0.00 | 0.00 | 71 | 1012.0 |
| 20260506004832 | 8 | 80 | 3.2 | 0.0 | 0.00 | 0.00 | 0.00 | 71 | 1011.0 |
| 20260506003452 | 8 | 80 | 3.2 | 0.0 | 0.00 | 0.00 | 0.00 | 71 | 1011.0 |
| 20260506001833 | 10 | 100 | 3.2 | 0.0 | 0.00 | 0.00 | 0.00 | 67 | 1011.0 |
| 20260506000333 | 10 | 100 | 3.2 | 0.0 | 0.00 | 0.00 | 0.00 | 67 | 1011.0 |
| 20260505234832 | 10 | 90 | 1.6 | 0.0 | 0.00 | 0.00 | 0.00 | 67 | 1011.0 |
| 20260505233332 | 10 | 90 | 1.6 | 0.0 | 0.00 | 0.00 | 0.00 | 67 | 1011.0 |
| 20260505231832 | 10 | 90 | 3.2 | 0.0 | 0.00 | 0.00 | 0.00 | 67 | 1011.0 |
| 20260505230333 | 10 | 90 | 3.2 | 0.0 | 0.00 | 0.00 | 0.00 | 67 | 1011.0 |
| 20260505224832 | 11 | 100 | 3.2 | 0.0 | 0.00 | 0.00 | 0.00 | 62 | 1011.0 |
| 20260505223332 | 11 | 100 | 3.2 | 0.0 | 0.00 | 0.00 | 0.00 | 62 | 1011.0 |
| 20260505221829 | 12 | 180 | 4.8 | 0.0 | 0.00 | 0.00 | 0.00 | 58 | 1011.0 |
| 20260505220332 | 12 | 180 | 4.8 | 0.0 | 0.00 | 0.00 | 0.00 | 58 | 1011.0 |
| 20260505214833 | 12 | 190 | 8.0 | 0.0 | 0.00 | 0.00 | 0.00 | 63 | 1011.0 |
| 20260505213332 | 12 | 190 | 8.0 | 0.0 | 0.00 | 0.00 | 0.00 | 63 | 1011.0 |
| 20260505211832 | 13 | 180 | 4.8 | 0.0 | 0.00 | 0.00 | 0.00 | 55 | 1011.0 |
| 20260505210332 | 13 | 180 | 4.8 | 0.0 | 0.00 | 0.00 | 0.00 | 55 | 1011.0 |
| 20260505204834 | 13 | 190 | 9.7 | 0.0 | 0.00 | 0.00 | 0.00 | 59 | 1011.0 |
| 20260505203332 | 13 | 190 | 9.7 | 0.0 | 0.00 | 0.00 | 0.00 | 59 | 1011.0 |
| 20260505201903 | 15 | 190 | 9.7 | 0.0 | 0.00 | 0.00 | 0.00 | 55 | 1011.0 |
| 20260505200333 | 15 | 190 | 9.7 | 0.0 | 0.00 | 0.00 | 0.00 | 55 | 1011.0 |
| 20260505194832 | 16 | 170 | 8.0 | 0.0 | 0.00 | 0.00 | 0.00 | 52 | 1011.0 |
| 20260505193332 | 16 | 170 | 8.0 | 0.0 | 0.00 | 0.00 | 0.00 | 52 | 1011.0 |
| 20260505191832 | 17 | 160 | 8.0 | 0.0 | 0.00 | 0.00 | 0.00 | 46 | 1011.0 |
| 20260505190332 | 17 | 160 | 8.0 | 0.0 | 0.00 | 0.00 | 0.00 | 46 | 1011.0 |
| 20260505184833 | 18 | 180 | 4.8 | 0.0 | 0.00 | 0.00 | 0.00 | 40 | 1011.0 |
| 20260505183333 | 18 | 180 | 4.8 | 0.0 | 0.00 | 0.00 | 0.00 | 40 | 1011.0 |
| 20260505181833 | 21 | 240 | 8.0 | 0.0 | 0.00 | 0.00 | 0.00 | 38 | 1011.0 |
| 20260505180332 | 21 | 240 | 8.0 | 0.0 | 0.00 | 0.00 | 0.00 | 38 | 1011.0 |
| 20260505174830 | 22 | 260 | 9.7 | 0.0 | 0.00 | 0.00 | 0.00 | 38 | 1011.0 |
| 20260505173332 | 22 | 260 | 9.7 | 0.0 | 0.00 | 0.00 | 0.00 | 38 | 1011.0 |
| 20260505171832 | 26 | 240 | 4.8 | 0.0 | 0.00 | 0.00 | 0.00 | 26 | 1011.0 |
| 20260505170332 | 26 | 240 | 4.8 | 0.0 | 0.00 | 0.00 | 0.00 | 26 | 1011.0 |
| 20260505164832 | 27 | 250 | 11.3 | 0.0 | 0.00 | 0.00 | 0.00 | 24 | 1011.0 |
| 20260505163332 | 27 | 250 | 11.3 | 0.0 | 0.00 | 0.00 | 0.00 | 24 | 1011.0 |
| 20260505161833 | 27 | 270 | 11.3 | 0.0 | 0.00 | 0.00 | 0.00 | 21 | 1011.0 |
| 20260505160333 | 27 | 270 | 11.3 | 0.0 | 0.00 | 0.00 | 0.00 | 21 | 1011.0 |
| 20260505153332 | 27 | 120 | 8.0 | 0.0 | 0.00 | 0.00 | 0.00 | 21 | 1011.0 |
| 20260505151840 | 27 | 190 | 4.8 | 0.0 | 0.00 | 0.00 | 0.00 | 21 | 1011.0 |
| 20260505150333 | 27 | 190 | 4.8 | 0.0 | 0.00 | 0.00 | 0.00 | 21 | 1011.0 |
| 20260505140332 | 27 | 250 | 11.3 | 0.0 | 0.00 | 0.00 | 0.00 | 21 | 1012.0 |
| 20260505124832 | 27 | 280 | 11.3 | 0.0 | 0.00 | 0.00 | 0.00 | 21 | 1013.0 |
| 20260505123332 | 27 | 280 | 11.3 | 0.0 | 0.00 | 0.00 | 0.00 | 21 | 1013.0 |
| 20260505121832 | 27 | 270 | 12.9 | 0.0 | 0.00 | 0.00 | 0.00 | 21 | 1013.0 |
| 20260505120340 | 27 | 270 | 11.3 | 0.0 | 0.00 | 0.00 | 0.00 | 20 | 1014.0 |
| 20260505114840 | 27 | 270 | 11.3 | 0.0 | 0.00 | 0.00 | 0.00 | 20 | 1014.0 |
| 20260505113403 | 27 | 270 | 11.3 | 0.0 | 0.00 | 0.00 | 0.00 | 20 | 1014.0 |
| 20260505111832 | 26 | 8.0 | 0.0 | 0.00 | 0.00 | 0.00 | 21 | 1014.0 | |
| 20260505110333 | 26 | 8.0 | 0.0 | 0.00 | 0.00 | 0.00 | 21 | 1014.0 | |
| 20260505101833 | 25 | 4.8 | 0.0 | 0.00 | 0.00 | 0.00 | 24 | 1015.0 | |
| 20260505100332 | 25 | 4.8 | 0.0 | 0.00 | 0.00 | 0.00 | 24 | 1015.0 | |
| 20260505094834 | 23 | 4.8 | 0.0 | 0.00 | 0.00 | 0.00 | 24 | 1015.0 |